When you browse on this site, cookies collect data to enhance your experience and personalize the content and advertising you see.
Visit our Privacy Policy to learn more. By continuing to use the site, you agree to this use of cookies and data.
  • In France
  • List of Countries
  • For 7 days
  • Water Temperature
  • Weather Map
  • Weather Widgets
  • user-avatar
    Login

    Hourly Weather Munich

    Today, 16 September, Monday

    Time Temperature Precipitation Wind Pressure Humidity
    00:00 +17°C° 0 mm 2 mps 721 mmHg 92%
    01:00 +17°C° 0 mm 2 mps 721 mmHg 92%
    02:00 +16°C° 0 mm 2 mps 721 mmHg 92%
    03:00 +16°C° 0 mm 2 mps 720 mmHg 92%
    04:00 +16°C° 0 mm 2 mps 720 mmHg 91%
    05:00 +16°C° 0 mm 2 mps 720 mmHg 90%
    06:00 +16°C° 0 mm 1 mps 720 mmHg 90%
    07:00 +16°C° 0 mm 1 mps 720 mmHg 89%
    08:00 +19°C° 0 mm 1 mps 720 mmHg 82%
    09:00 +21°C° 0 mm 1 mps 720 mmHg 75%
    10:00 +23°C° 0 mm 1 mps 720 mmHg 68%
    11:00 +24°C° 0 mm 2 mps 720 mmHg 66%
    12:00 +25°C° 0 mm 2 mps 719 mmHg 64%
    13:00 +26°C° 0 mm 3 mps 719 mmHg 62%
    14:00 +25°C° 0 mm 3 mps 719 mmHg 64%
    15:00 +25°C° 0 mm 3 mps 718 mmHg 66%
    16:00 +25°C° 0 mm 3 mps 718 mmHg 68%
    17:00 +23°C° 0.2 mm 2 mps 718 mmHg 74%
    18:00 +20°C° 0.2 mm 2 mps 718 mmHg 79%
    19:00 +19°C° 0.2 mm 1 mps 718 mmHg 85%
    20:00 +19°C° 0.1 mm 1 mps 718 mmHg 85%
    21:00 +18°C° 0.1 mm 1 mps 718 mmHg 85%
    22:00 +18°C° 0.1 mm 1 mps 718 mmHg 85%
    23:00 +16°C° 0 mm 1 mps 718 mmHg 86%

    Tomorrow, 17 September, Tuesday

    Time Temperature Precipitation Wind Pressure Humidity
    00:00 +16°C° 0 mm 1 mps 718 mmHg 87%
    01:00 +15°C° 0 mm 1 mps 718 mmHg 88%
    02:00 +15°C° 0 mm 1 mps 718 mmHg 88%
    03:00 +15°C° 0 mm 1 mps 717 mmHg 88%
    04:00 +14°C° 0 mm 1 mps 717 mmHg 88%
    05:00 +14°C° 0 mm 1 mps 717 mmHg 88%
    06:00 +14°C° 0 mm 1 mps 717 mmHg 89%
    07:00 +14°C° 0 mm 1 mps 718 mmHg 89%
    08:00 +15°C° 0 mm 1 mps 718 mmHg 89%
    09:00 +15°C° 0 mm 1 mps 718 mmHg 89%
    10:00 +15°C° 0 mm 1 mps 718 mmHg 89%
    11:00 +16°C° 0 mm 2 mps 718 mmHg 87%
    12:00 +16°C° 0 mm 2 mps 717 mmHg 85%
    13:00 +17°C° 0 mm 2 mps 717 mmHg 83%
    14:00 +17°C° 0 mm 2 mps 717 mmHg 82%
    15:00 +17°C° 0 mm 2 mps 717 mmHg 81%
    16:00 +17°C° 0 mm 2 mps 717 mmHg 80%
    17:00 +16°C° 0 mm 2 mps 717 mmHg 81%
    18:00 +15°C° 0 mm 2 mps 717 mmHg 82%
    19:00 +15°C° 0 mm 2 mps 718 mmHg 82%
    20:00 +14°C° 0 mm 2 mps 718 mmHg 82%
    21:00 +13°C° 0 mm 2 mps 718 mmHg 82%
    22:00 +12°C° 0 mm 2 mps 719 mmHg 81%
    23:00 +11°C° 0 mm 1 mps 719 mmHg 83%

    Day after tomorrow, 18 September, Wednesday

    Time Temperature Precipitation Wind Pressure Humidity
    00:00 +10°C° 0 mm 1 mps 719 mmHg 84%
    01:00 +9°C° 0 mm 1 mps 719 mmHg 86%
    02:00 +8°C° 0 mm 1 mps 720 mmHg 88%
    03:00 +8°C° 0 mm 1 mps 720 mmHg 90%
    04:00 +7°C° 0 mm 1 mps 720 mmHg 92%
    05:00 +7°C° 0 mm 1 mps 720 mmHg 90%
    06:00 +7°C° 0 mm 1 mps 720 mmHg 88%
    07:00 +7°C° 0 mm 1 mps 720 mmHg 85%
    08:00 +8°C° 0 mm 2 mps 720 mmHg 77%
    09:00 +10°C° 0 mm 2 mps 720 mmHg 70%
    10:00 +12°C° 0 mm 2 mps 721 mmHg 62%
    11:00 +13°C° 0 mm 2 mps 720 mmHg 58%
    12:00 +14°C° 0 mm 2 mps 720 mmHg 55%
    13:00 +15°C° 0 mm 2 mps 720 mmHg 51%
    14:00 +14°C° 0 mm 3 mps 720 mmHg 52%
    15:00 +14°C° 0 mm 3 mps 719 mmHg 52%
    16:00 +14°C° 0 mm 3 mps 719 mmHg 52%
    17:00 +13°C° 0 mm 2 mps 719 mmHg 58%
    18:00 +10°C° 0 mm 2 mps 720 mmHg 63%
    19:00 +9°C° 0 mm 1 mps 720 mmHg 68%
    20:00 +8°C° 0 mm 1 mps 720 mmHg 70%
    21:00 +8°C° 0 mm 1 mps 721 mmHg 71%
    22:00 +6°C° 0 mm 0 mps 721 mmHg 72%
    23:00 +6°C° 0 mm 0 mps 721 mmHg 74%

    19 September, Thursday

    Time Temperature Precipitation Wind Pressure Humidity
    00:00 +6°C° 0 mm 1 mps 721 mmHg 76%
    01:00 +6°C° 0 mm 1 mps 721 mmHg 78%
    02:00 +6°C° 0 mm 1 mps 721 mmHg 80%
    03:00 +5°C° 0 mm 1 mps 721 mmHg 82%
    04:00 +5°C° 0 mm 1 mps 721 mmHg 85%
    05:00 +5°C° 0 mm 1 mps 721 mmHg 84%
    06:00 +6°C° 0 mm 1 mps 721 mmHg 82%
    07:00 +6°C° 0 mm 1 mps 721 mmHg 81%
    08:00 +8°C° 0 mm 1 mps 721 mmHg 75%
    09:00 +9°C° 0 mm 2 mps 722 mmHg 70%
    10:00 +12°C° 0 mm 2 mps 722 mmHg 64%
    11:00 +13°C° 0 mm 2 mps 722 mmHg 61%
    12:00 +13°C° 0 mm 3 mps 722 mmHg 58%
    13:00 +14°C° 0 mm 3 mps 722 mmHg 55%
    14:00 +14°C° 0 mm 3 mps 722 mmHg 56%
    15:00 +14°C° 0 mm 3 mps 722 mmHg 57%
    16:00 +14°C° 0 mm 3 mps 722 mmHg 58%
    17:00 +12°C° 0 mm 3 mps 722 mmHg 64%
    18:00 +10°C° 0 mm 2 mps 722 mmHg 71%
    19:00 +8°C° 0 mm 2 mps 722 mmHg 77%
    20:00 +7°C° 0 mm 2 mps 723 mmHg 78%
    21:00 +6°C° 0 mm 2 mps 723 mmHg 79%
    22:00 +6°C° 0 mm 2 mps 723 mmHg 80%
    23:00 +5°C° 0 mm 2 mps 723 mmHg 81%

    20 September, Friday

    Time Temperature Precipitation Wind Pressure Humidity
    00:00 +5°C° 0 mm 2 mps 723 mmHg 82%
    01:00 +4°C° 0 mm 2 mps 723 mmHg 83%
    02:00 +4°C° 0 mm 2 mps 723 mmHg 85%
    03:00 +3°C° 0 mm 2 mps 723 mmHg 87%
    04:00 +3°C° 0 mm 2 mps 722 mmHg 88%
    05:00 +3°C° 0 mm 2 mps 722 mmHg 88%
    06:00 +4°C° 0 mm 2 mps 722 mmHg 87%
    07:00 +4°C° 0 mm 2 mps 722 mmHg 87%
    08:00 +5°C° 0 mm 3 mps 722 mmHg 78%
    09:00 +8°C° 0 mm 4 mps 723 mmHg 70%
    10:00 +11°C° 0 mm 4 mps 723 mmHg 62%
    11:00 +12°C° 0 mm 5 mps 722 mmHg 59%
    12:00 +13°C° 0 mm 5 mps 722 mmHg 55%
    13:00 +14°C° 0 mm 5 mps 722 mmHg 52%
    14:00 +14°C° 0 mm 5 mps 721 mmHg 53%
    15:00 +14°C° 0 mm 5 mps 721 mmHg 55%
    16:00 +14°C° 0 mm 4 mps 721 mmHg 56%
    17:00 +12°C° 0 mm 4 mps 721 mmHg 61%
    18:00 +10°C° 0 mm 3 mps 721 mmHg 67%
    19:00 +9°C° 0 mm 3 mps 721 mmHg 72%
    20:00 +8°C° 0 mm 3 mps 721 mmHg 73%
    21:00 +7°C° 0 mm 3 mps 722 mmHg 73%
    22:00 +6°C° 0 mm 4 mps 722 mmHg 73%
    23:00 +5°C° 0 mm 3 mps 721 mmHg 74%

    21 September, Saturday

    Time Temperature Precipitation Wind Pressure Humidity
    00:00 +4°C° 0 mm 3 mps 721 mmHg 75%
    01:00 +5°C° 0 mm 2 mps 721 mmHg 76%
    02:00 +4°C° 0 mm 2 mps 721 mmHg 78%
    03:00 +4°C° 0 mm 2 mps 720 mmHg 81%
    04:00 +4°C° 0 mm 2 mps 720 mmHg 83%
    05:00 +4°C° 0 mm 2 mps 720 mmHg 84%
    06:00 +5°C° 0 mm 2 mps 720 mmHg 84%
    07:00 +5°C° 0 mm 2 mps 720 mmHg 85%
    08:00 +8°C° 0 mm 2 mps 720 mmHg 78%
    09:00 +12°C° 0 mm 2 mps 720 mmHg 71%
    10:00 +15°C° 0 mm 2 mps 721 mmHg 65%
    11:00 +16°C° 0 mm 2 mps 720 mmHg 62%
    12:00 +18°C° 0 mm 2 mps 720 mmHg 60%
    13:00 +19°C° 0 mm 2 mps 720 mmHg 58%
    14:00 +19°C° 0 mm 3 mps 720 mmHg 61%
    15:00 +19°C° 0 mm 3 mps 719 mmHg 64%
    16:00 +18°C° 0 mm 3 mps 719 mmHg 67%
    17:00 +16°C° 0 mm 3 mps 719 mmHg 73%
    18:00 +14°C° 0 mm 2 mps 719 mmHg 80%
    19:00 +12°C° 0 mm 2 mps 719 mmHg 86%
    20:00 +10°C° 0 mm 2 mps 719 mmHg 86%
    21:00 +11°C° 0 mm 1 mps 719 mmHg 86%
    22:00 +10°C° 0 mm 1 mps 719 mmHg 86%
    23:00 +10°C° 0 mm 1 mps 719 mmHg 87%
    Show more